Timestamp[UTC];2m Lufttemperatur [degC] (tas);Stations-Luftdruck [Pa] (ps);relative Luftfeuchtigkeit [%] (hurs);spezifische Luftfeuchtigkeit [kg/kg] (huss);Niederschlagsmenge [mm] (pr);Windgeschwindigkeit in 2m [m/s] (sfcWind);Windrichtung [deg];maximale Windgeschwindigkeit [m/s] (wsgsmax);u-Windkomponente [m/s] (uas);v-Windkomponente [m/s] (vas);Sonneneinstrahlung [W/m2];Blitzrate [n];Blitzentfernung [km];Bodenfeuchte in 5cm Tiefe [vol%];Bodenfeuchte in 15cm Tiefe [vol%];Bodenfeuchte in 30cm Tiefe [vol%];Bodenfeuchte in 60cm Tiefe [vol%];Bodentemperatur in 5cm Tiefe [degC];Bodentemperatur in 15cm Tiefe [degC];Bodentemperatur in 30cm Tiefe [degC];Bodentemperatur in 60cm Tiefe [degC];Matrixpotential in 30cm Tiefe [kPa];Bodenfeuchte aus CRNS [vol%] (mrso);Neutronen Anzahl [N/h]
2022-08-01 00:00:00;20,7;99620;71;0,0108;0,0;3,2;282;4,1;0,72;-3,05;0;0;0;11,6;14,9;14,6;21,2;21,2;21,4;20,7;19,0;-5890,0;11,1;1826
2022-08-01 01:00:00;20,3;99611;72;0,0108;0,0;3,3;297;4,5;1,57;-2,93;0;0;0;11,6;14,9;14,6;21,2;21,0;21,2;20,7;19,1;-5940,5;11,1;2259
2022-08-01 02:00:00;19,9;99605;74;0,0108;0,0;3,4;311;4,6;2,0;-2,57;0;0;0;11,6;14,9;14,6;21,1;20,8;21,1;20,6;19,1;-3847,4;11,2;1912
2022-08-01 03:00:00;19,6;99602;76;0,0109;0,0;3,3;291;4,4;1,21;-3,03;0;0;0;11,6;14,9;14,6;21,1;20,7;21,0;20,6;19,1;-1844,6;11,3;1951
2022-08-01 04:00:00;19,5;99617;77;0,011;0,0;2,3;297;3,1;1,05;-1,98;5;0;0;11,6;14,9;14,6;21,1;20,6;20,9;20,6;19,1;-5966,6;11,3;1946
2022-08-01 05:00:00;19,7;99637;78;0,0111;0,0;2,2;289;2,9;0,75;-1,96;37;0;0;11,6;14,9;14,6;21,1;20,5;20,8;20,5;19,1;-3975,6;11,3;1978
2022-08-01 06:00:00;19,8;99651;78;0,0113;0,0;2,9;329;3,9;2,46;-1,47;95;0;0;11,6;14,9;14,6;21,1;20,5;20,7;20,5;19,2;-9990,0;11,5;1917
2022-08-01 07:00:00;20,2;99669;78;0,0116;0,0;2,7;325;3,6;2,13;-1,47;185;0;0;11,6;14,9;14,6;21,1;20,5;20,7;20,5;19,2;-9990,0;11,8;1985
2022-08-01 08:00:00;20,7;99681;75;0,0114;0,0;1,8;324;2,5;1,5;-0,98;186;0;0;11,6;14,9;14,6;21,1;20,7;20,7;20,4;19,2;-9990,0;12,1;1923
2022-08-01 09:00:00;19,4;99713;85;0,012;0,24;1,8;328;2,3;1,57;-0,83;250;0;0;11,6;14,9;14,6;21,1;20,9;20,7;20,4;19,2;-9990,0;12,2;2040
2022-08-01 10:00:00;20,8;99712;81;0,0124;0,0;1,4;255;2,1;-0,08;-1,2;393;0;0;11,7;14,9;14,6;21,1;21,1;20,8;20,4;19,2;-9990,0;12,3;1850
2022-08-01 11:00:00;21,6;99709;74;0,012;0,15;2,2;271;2,9;0,11;-1,99;261;0;0;11,7;14,9;14,6;21,1;21,6;21,0;20,4;19,2;-9990,0;12,5;1871
2022-08-01 12:00:00;19,8;99715;88;0,0127;0,37;2,7;252;3,7;-0,91;-2,42;275;0;0;12,1;14,9;14,6;21,1;21,7;21,1;20,4;19,2;-9990,0;12,7;1753
2022-08-01 13:00:00;20,0;99703;86;0,0125;0,0;2,9;253;3,8;-0,88;-2,78;269;0;0;12,5;14,9;14,6;21,1;21,7;21,2;20,4;19,2;-9990,0;12,7;1642
2022-08-01 14:00:00;22,0;99698;73;0,012;0,0;3,2;248;4,1;-1,26;-2,81;222;0;0;12,4;14,9;14,6;21,0;21,8;21,3;20,4;19,2;-9990,0;13,4;1754
2022-08-01 15:00:00;22,3;99701;68;0,0115;0,0;2,5;251;3,2;-0,74;-2,35;145;0;0;12,4;14,9;14,6;21,0;21,7;21,3;20,5;19,2;-9990,0;13,6;1889
2022-08-01 16:00:00;23,2;99680;62;0,011;0,0;2,5;271;3,2;0,09;-2,04;202;0;0;12,3;14,9;14,6;21,0;21,6;21,4;20,5;19,2;-7959,1;13,8;1840
2022-08-01 17:00:00;22,7;99687;61;0,0106;0,0;3,4;348;4,4;3,35;-0,73;93;0;0;12,3;14,9;14,6;21,0;21,6;21,3;20,5;19,2;-9990,0;14,0;1759
2022-08-01 18:00:00;22,5;99725;62;0,0106;0,0;3,0;353;3,8;2,99;-0,34;81;0;0;12,3;14,9;14,6;21,0;21,4;21,3;20,5;19,2;-9990,0;14,3;1753
2022-08-01 19:00:00;19,8;99779;70;0,0101;0,0;1,7;330;2,1;1,45;-0,69;3;0;0;12,3;15,0;14,6;21,0;21,2;21,3;20,6;19,2;-7978,3;14,5;1652
2022-08-01 20:00:00;18,5;99836;74;0,0098;0,0;1,4;267;1,7;-0,05;-1,32;0;0;0;12,3;15,0;14,6;21,0;20,9;21,1;20,6;19,2;-9990,0;14,8;1716
2022-08-01 21:00:00;17,6;99854;77;0,0096;0,0;1,7;253;2,0;-0,5;-1,63;0;0;0;12,2;15,0;14,6;21,0;20,4;20,9;20,5;19,2;-9990,0;15,1;1813
2022-08-01 22:00:00;16,6;99871;78;0,0092;0,0;1,8;248;2,0;-0,65;-1,66;0;0;0;12,2;15,0;14,6;21,0;20,1;20,7;20,5;19,3;-9990,0;15,6;1719
2022-08-01 23:00:00;14,9;99865;82;0,0087;0,0;1,1;213;1,5;-0,82;-0,64;0;0;0;12,2;15,0;14,6;21,0;19,6;20,5;20,5;19,3;-9990,0;15,8;1683
2022-08-02 00:00:00;13,5;99867;87;0,0084;0,0;0,6;157;1,0;-0,52;0,23;0;0;0;12,2;14,9;14,6;21,0;19,3;20,3;20,4;19,3;-7971,7;16,1;1831
2022-08-02 01:00:00;12,5;99863;90;0,0081;0,0;0,5;148;0,7;-0,38;0,29;0;0;0;12,2;14,9;14,6;21,0;18,9;20,0;20,3;19,3;-9990,0;16,3;1620
2022-08-02 02:00:00;12,9;99842;89;0,0083;0,0;0,5;140;0,9;-0,37;0,09;0;0;0;12,2;14,9;14,6;21,0;18,6;19,7;20,3;19,3;-9990,0;16,2;1762
2022-08-02 03:00:00;13,1;99803;90;0,0085;0,0;0,3;171;0,7;0,02;0,14;0;0;0;12,2;14,9;14,6;21,0;18,3;19,5;20,2;19,3;-9990,0;16,3;1741
2022-08-02 04:00:00;12,6;99787;91;0,0083;0,0;0,4;205;1,0;-0,38;-0,17;16;0;0;12,1;14,9;14,6;21,0;18,0;19,3;20,1;19,3;-9990,0;16,5;1764
2022-08-02 05:00:00;14,8;99778;91;0,0096;0,0;0,9;154;1,6;-0,56;0,62;130;0;0;12,1;14,9;14,6;21,0;17,8;19,1;20,0;19,3;-9990,0;16,7;1741
2022-08-02 06:00:00;19,3;99768;78;0,0109;0,0;1,8;140;3,0;-1,35;1,16;288;0;0;12,1;14,9;14,6;21,0;18,0;18,9;19,8;19,3;-9990,0;16,9;1755
2022-08-02 07:00:00;21,7;99758;68;0,011;0,0;2,6;119;4,9;-0,77;0,61;430;0;0;12,2;14,9;14,6;21,0;18,5;18,9;19,7;19,3;-9990,0;16,9;1716
2022-08-02 08:00:00;23,5;99750;61;0,011;0,0;3,6;205;5,9;-3,19;-1,61;548;0;0;12,2;14,9;14,6;21,0;19,0;19,1;19,6;19,3;-9990,0;16,9;1688
2022-08-02 09:00:00;25,0;99725;54;0,0107;0,0;3,2;222;5,7;-2,25;-2,12;619;0;0;12,2;14,9;14,6;21,0;19,6;19,3;19,6;19,3;-9990,0;17,0;1659
2022-08-02 10:00:00;26,0;99702;48;0,0102;0,0;2,8;230;5,2;-1,76;-2,14;556;0;0;12,2;14,9;14,6;21,0;20,5;19,6;19,6;19,3;-9990,0;17,1;1730
2022-08-02 11:00:00;27,0;99647;44;0,0099;0,0;2,4;264;4,5;-0,27;-2,0;661;0;0;12,1;15,0;14,6;21,0;21,3;20,0;19,6;19,2;-9990,0;17,1;1724
2022-08-02 12:00:00;27,6;99630;42;0,0098;0,0;2,2;287;5,3;0,62;-2,03;566;0;0;11,8;15,0;14,6;21,0;22,1;20,5;19,6;19,2;-9990,0;17,0;1675
2022-08-02 13:00:00;28,1;99605;40;0,0096;0,0;2,6;276;5,0;0,26;-2,54;484;0;0;11,8;15,0;14,6;20,9;22,5;20,9;19,7;19,2;-9990,0;17,2;1745
2022-08-02 14:00:00;28,8;99568;40;0,0101;0,0;2,2;286;4,9;0,56;-1,89;533;0;0;11,8;15,0;14,6;20,9;22,8;21,3;19,8;19,2;-9990,0;16,9;1737
2022-08-02 15:00:00;29,1;99543;40;0,0101;0,0;2,4;281;5,6;0,51;-2,27;398;0;0;11,8;15,0;14,6;20,9;23,1;21,6;19,9;19,2;-9990,0;17,0;1748
2022-08-02 16:00:00;29,2;99525;40;0,0101;0,0;2,6;279;4,8;0,39;-2,55;316;0;0;11,8;15,0;14,6;20,9;23,1;21,8;20,1;19,2;-9990,0;16,8;1764
2022-08-02 17:00:00;28,7;99502;40;0,01;0,0;2,0;278;4,3;0,3;-1,96;149;0;0;11,8;15,0;14,6;20,9;22,9;21,9;20,2;19,2;-9990,0;16,9;1646
2022-08-02 18:00:00;28,0;99510;43;0,0102;0,0;1,5;262;2,6;-0,14;-1,44;71;0;0;11,7;15,0;14,6;20,9;22,6;21,9;20,3;19,2;-9990,0;16,9;1762
2022-08-02 19:00:00;24,4;99520;53;0,0102;0,0;1,8;231;2,1;-1,11;-1,42;4;0;0;11,8;15,0;14,6;20,9;22,2;21,8;20,4;19,2;-9990,0;17,0;1675
2022-08-02 20:00:00;20,8;99548;66;0,0102;0,0;1,2;199;1,9;-0,77;-0,59;0;0;0;11,8;15,0;14,6;20,8;21,7;21,7;20,5;19,2;-9990,0;17,0;1753
2022-08-02 21:00:00;19,0;99577;72;0,0099;0,0;0,9;185;1,3;-0,81;-0,15;0;0;0;11,8;15,0;14,6;20,8;21,2;21,5;20,5;19,2;-9990,0;16,9;1762
2022-08-02 22:00:00;17,6;99603;75;0,0095;0,0;0,6;166;0,9;-0,56;0,14;0;0;0;11,7;15,0;14,6;20,8;20,7;21,2;20,5;19,2;-9990,0;16,9;1778
2022-08-02 23:00:00;17,6;99615;76;0,0095;0,0;0,7;182;1,1;-0,64;-0,14;0;0;0;11,7;15,0;14,6;20,8;20,3;21,0;20,5;19,2;-9990,0;16,9;1788
2022-08-03 00:00:00;16,7;99582;79;0,0094;0,0;0,5;177;0,8;-0,46;0,02;0;0;0;11,7;15,0;14,6;20,8;19,9;20,7;20,5;19,2;-9990,0;17,0;1739
2022-08-03 01:00:00;16,2;99567;81;0,0094;0,0;0,4;191;0,7;-0,07;-0,03;0;0;0;11,7;15,0;14,6;20,8;19,6;20,5;20,5;19,2;-7992,2;16,8;1840
2022-08-03 02:00:00;15,9;99545;82;0,0093;0,0;0,4;223;0,7;-0,18;-0,05;0;0;0;11,7;15,0;14,6;20,8;19,3;20,2;20,4;19,2;-9990,0;16,8;1761
2022-08-03 03:00:00;15,4;99528;84;0,0092;0,0;0,4;147;0,6;-0,26;0,12;0;0;0;11,7;15,0;14,6;20,8;19,0;20,0;20,3;19,2;-9990,0;16,7;1864
2022-08-03 04:00:00;16,1;99512;82;0,0095;0,0;0,6;236;1,1;-0,02;0,15;30;0;0;11,7;15,0;14,6;20,8;18,8;19,8;20,2;19,3;-9990,0;16,8;1758
2022-08-03 05:00:00;19,1;99527;80;0,0111;0,0;0,4;57;0,7;0,09;0,18;130;0;0;11,7;15,0;14,6;20,8;18,8;19,6;20,2;19,2;-9990,0;16,7;1756
2022-08-03 06:00:00;23,0;99523;67;0,0118;0,0;1,6;122;2,5;-0,86;1,25;259;0;0;11,7;15,0;14,6;20,8;19,1;19,5;20,1;19,3;-9990,0;16,4;1726
2022-08-03 07:00:00;26,2;99540;58;0,0123;0,0;1,5;103;3,0;-0,36;1,49;393;0;0;11,7;15,0;14,6;20,8;19,6;19,6;20,0;19,3;-9990,0;16,5;1737
2022-08-03 08:00:00;27,9;99530;49;0,0116;0,0;1,4;176;2,8;-1,26;0,07;525;0;0;11,8;15,0;14,6;20,8;20,3;19,8;19,9;19,3;-9990,0;16,4;1789
2022-08-03 09:00:00;28,7;99535;47;0,0116;0,0;1,3;95;3,2;1,01;0,16;628;0;0;11,8;15,0;14,6;20,8;21,3;20,1;19,9;19,3;-9990,0;16,3;1672
2022-08-03 10:00:00;29,7;99508;44;0,0116;0,0;1,4;77;3,4;0,44;0,74;684;0;0;11,8;15,0;14,6;20,8;22,6;20,6;19,9;19,3;-9990,0;16,2;1706
2022-08-03 11:00:00;31,0;99455;41;0,0116;0,0;2,1;111;4,7;-0,68;1,8;724;0;0;11,9;15,0;14,6;20,8;24,1;21,2;19,9;19,2;-9990,0;16,2;1702
2022-08-03 12:00:00;31,5;99433;39;0,0113;0,0;2,1;126;4,2;-1,22;1,65;620;0;0;11,9;15,1;14,6;20,8;25,2;22,0;20,0;19,3;-9990,0;16,1;1803
2022-08-03 13:00:00;31,9;99417;38;0,0112;0,0;1,7;58;4,0;0,66;1,03;595;0;0;11,9;15,1;14,6;20,7;25,8;22,6;20,2;19,2;-9990,0;16,0;1794
2022-08-03 14:00:00;32,5;99372;36;0,011;0,0;1,7;16;3,8;1,6;0,46;562;0;0;12,0;15,1;14,6;20,7;26,2;23,2;20,4;19,2;-9990,0;16,0;1761
2022-08-03 15:00:00;33,0;99322;34;0,0109;0,0;1,4;118;2,9;-0,72;1,18;428;0;0;12,0;15,1;14,6;20,7;26,4;23,6;20,6;19,2;-7941,6;15,9;1770
2022-08-03 16:00:00;32,2;99303;37;0,0111;0,0;1,2;30;2,6;1,04;0,57;151;0;0;11,9;15,1;14,6;20,7;26,1;23,9;20,9;19,2;-1783,9;16,0;1820
2022-08-03 17:00:00;31,0;99300;39;0,0111;0,0;1,1;28;2,1;0,98;0,46;107;0;0;11,9;15,1;14,6;20,7;25,4;24,0;21,1;19,2;-1584,2;15,9;1871
2022-08-03 18:00:00;30,6;99305;40;0,0111;0,0;0,9;143;1,7;0,64;0,22;60;0;0;11,8;15,1;14,6;20,6;24,9;23,9;21,3;19,3;-1426,1;15,7;1753
2022-08-03 19:00:00;26,3;99330;50;0,0109;0,0;1,5;241;2,1;-0,74;-1,27;2;0;0;11,8;15,1;14,6;20,6;24,3;23,7;21,5;19,3;-1422,7;15,5;1771
2022-08-03 20:00:00;23,9;99340;57;0,0107;0,0;1,9;236;2,2;-1,04;-1,55;0;0;0;11,8;15,1;14,6;20,6;23,6;23,5;21,6;19,3;-1385,9;15,5;1813
2022-08-03 21:00:00;21,9;99337;64;0,0105;0,0;1,8;236;2,3;-0,97;-1,46;0;0;0;11,7;15,1;14,6;20,6;23,0;23,2;21,6;19,3;-1339,8;15,5;1909
2022-08-03 22:00:00;20,4;99310;69;0,0104;0,0;0,9;194;1,4;-0,87;-0,23;0;0;0;11,7;15,1;14,6;20,6;22,5;22,9;21,7;19,3;-1378,0;15,4;1842
2022-08-03 23:00:00;19,0;99310;73;0,0101;0,0;0,6;160;1,0;-0,57;0,21;0;0;0;11,7;15,1;14,6;20,6;22,0;22,6;21,7;19,3;-1344,9;15,4;1903
2022-08-04 00:00:00;17,9;99303;76;0,0098;0,0;0,6;175;0,9;-0,6;0,04;0;0;0;11,6;15,1;14,6;20,6;21,5;22,3;21,6;19,4;-1346,2;15,2;1843
2022-08-04 01:00:00;17,4;99300;78;0,0097;0,0;0,5;169;0,9;-0,5;0,08;0;0;0;11,6;15,0;14,6;20,6;21,1;22,0;21,6;19,4;-1391,1;15,3;1838
2022-08-04 02:00:00;17,1;99270;79;0,0097;0,0;0,6;165;1,0;-0,57;0,09;0;0;0;11,6;15,0;14,6;20,6;20,7;21,7;21,5;19,4;-1379,2;15,3;1878
2022-08-04 03:00:00;16,7;99238;81;0,0097;0,0;0,5;138;0,9;-0,34;0,28;0;0;0;11,6;15,0;14,6;20,6;20,3;21,4;21,4;19,5;-1414,5;15,4;1881
2022-08-04 04:00:00;17,3;99210;79;0,0098;0,0;0,4;255;0,9;-0,0;-0,21;24;0;0;11,6;15,0;14,6;20,6;20,0;21,2;21,3;19,5;-1388,5;15,2;1897
2022-08-04 05:00:00;20,1;99215;74;0,0109;0,0;1,0;106;1,8;-0,39;0,89;120;0;0;11,5;15,0;14,6;20,6;19,9;20,9;21,2;19,5;-1466,3;15,0;1906
2022-08-04 06:00:00;23,3;99207;65;0,0117;0,0;2,0;126;2,9;-1,18;1,59;247;0;0;11,6;15,0;14,6;20,6;20,2;20,8;21,1;19,6;-1518,4;14,6;1945
2022-08-04 07:00:00;27,5;99200;54;0,0124;0,0;2,5;128;3,7;-1,51;1,96;397;0;0;11,6;15,0;14,6;20,6;21,0;20,8;21,0;19,6;-1584,6;14,4;1776
2022-08-04 08:00:00;30,8;99195;44;0,0125;0,0;2,5;105;4,7;-0,97;2,04;530;0;0;11,6;15,0;14,6;20,6;22,1;21,1;20,9;19,6;-1731,8;14,2;1831
2022-08-04 09:00:00;33,5;99177;35;0,0113;0,0;1,8;284;4,4;0,37;-1,58;735;0;0;11,7;15,0;14,6;20,5;23,6;21,5;20,8;19,6;-3756,4;13,9;1809
2022-08-04 10:00:00;34,2;99192;29;0,0098;0,0;2,6;252;5,0;-0,67;-2,33;520;0;0;11,8;15,0;14,6;20,5;25,2;22,2;20,9;19,6;-1722,3;13,9;1807
2022-08-04 11:00:00;34,2;99200;26;0,0088;0,0;3,2;303;6,0;1,5;-2,66;510;0;0;11,7;15,1;14,6;20,5;25,7;22,9;20,9;19,6;-1736,6;13,8;1877
2022-08-04 12:00:00;32,5;99225;34;0,0106;0,0;3,7;334;7,3;3,35;-1,5;269;0;0;11,7;15,1;14,6;20,5;25,9;23,4;21,1;19,6;-1568,2;13,6;1787
2022-08-04 13:00:00;30,6;99263;42;0,0115;0,0;4,9;323;7,6;3,91;-2,95;421;0;0;11,7;15,1;14,6;20,5;25,7;23,7;21,2;19,6;-1483,2;13,4;1801
2022-08-04 14:00:00;31,4;99240;41;0,0119;0,0;4,2;329;6,2;3,61;-2,16;606;0;0;11,7;15,1;14,6;20,4;26,0;23,8;21,4;19,6;-1396,0;13,1;1725
2022-08-04 15:00:00;30,7;99219;43;0,0119;0,0;3,6;291;5,3;3,35;-1,11;192;0;0;11,6;15,1;14,6;20,4;26,2;24,0;21,6;19,6;-1419,4;13,0;1993
2022-08-04 16:00:00;25,0;99279;65;0,0129;0,05;3,5;291;4,6;1,93;-2,32;64;0;0;11,6;15,1;14,6;20,4;25,8;24,2;21,7;19,6;-1318,0;12,8;1939
2022-08-04 17:00:00;23,7;99238;77;0,0141;0,0;1,1;223;1,3;-0,7;-0,66;102;0;0;11,6;15,1;14,6;20,4;25,2;24,2;21,9;19,6;-1318,8;12,6;2234
2022-08-04 18:00:00;25,1;99257;70;0,0141;0,0;1,6;255;1,9;-0,41;-1,46;54;0;0;11,5;15,1;14,6;20,4;24,9;24,1;22,0;19,7;-1287,8;12,3;1932
2022-08-04 19:00:00;24,0;99301;70;0,0133;0,0;1,8;253;2,2;-0,51;-1,71;0;0;0;11,5;15,1;14,6;20,4;24,4;24,0;22,1;19,7;-1284,3;12,4;1869
2022-08-04 20:00:00;23,0;99380;73;0,0128;0,0;2,4;298;3,2;1,13;-2,06;0;0;0;11,5;15,1;14,6;20,4;23,9;23,8;22,1;19,7;-1231,5;12,0;2107
2022-08-04 21:00:00;22,4;99478;74;0,0126;0,0;2,6;284;3,3;0,68;-2,53;0;0;0;11,4;15,1;14,6;20,4;23,4;23,6;22,2;19,7;-1262,2;11,6;1888
2022-08-04 22:00:00;22,4;99485;74;0,0125;0,0;2,3;251;3,1;0,62;-2,1;0;0;0;11,4;15,0;14,6;20,4;23,0;23,3;22,2;19,7;-1250,1;11,5;1836
2022-08-04 23:00:00;21,1;99364;80;0,0126;0,04;1,7;219;2,1;-0,51;-0,79;0;0;0;11,4;15,0;14,6;20,4;22,7;23,0;22,2;19,8;-1283,8;11,5;2081
2022-08-05 00:00:00;19,6;99306;86;0,0123;0,02;1,4;238;1,6;-0,67;-1,14;0;0;0;11,4;15,0;14,6;20,4;22,5;22,8;22,1;19,8;-1220,0;11,4;1985
2022-08-05 01:00:00;19,0;99290;88;0,0121;0,0;1,5;276;1,8;0,09;-1,27;0;0;0;11,4;15,0;14,6;20,4;22,1;22,6;22,0;19,8;-1250,7;11,2;2169
2022-08-05 02:00:00;18,8;99409;85;0,0117;0,0;4,1;292;5,1;1,59;-3,77;0;1;1;11,4;15,0;14,6;20,4;21,9;22,4;22,0;19,8;-1234,6;11,1;1975
2022-08-05 03:00:00;18,0;99489;86;0,0112;0,11;1,8;266;2,2;0,28;-1,57;0;0;0;11,4;15,0;14,6;20,4;21,6;22,2;21,9;19,9;-1284,6;10,8;2014
2022-08-05 04:00:00;17,4;99317;90;0,0113;0,08;1,5;154;2,0;-0,8;0,94;11;0;0;11,4;15,0;14,6;20,4;21,4;22,0;21,8;19,9;-1325,3;10,8;2097
2022-08-05 05:00:00;17,7;99396;92;0,0117;0,0;2,1;311;2,7;1,35;-1,44;46;0;0;11,4;15,0;14,6;20,4;21,1;21,8;21,8;19,9;-1336,3;10,7;2145
2022-08-05 06:00:00;17,9;99430;93;0,012;0,0;1,3;319;1,8;0,74;-0,86;76;0;0;11,4;15,0;14,6;20,4;21,1;21,7;21,7;19,9;-1326,2;10,8;1904
2022-08-05 07:00:00;18,2;99491;91;0,012;0,0;2,6;316;3,4;1,88;-1,69;100;0;0;11,4;15,0;14,6;20,4;21,3;21,6;21,6;19,9;-1358,9;10,8;2119
2022-08-05 08:00:00;18,6;99551;91;0,0122;0,0;3,3;310;4,2;2,15;-2,46;134;0;0;11,4;15,0;14,6;20,4;21,4;21,6;21,5;19,9;-1420,2;10,9;2182
2022-08-05 09:00:00;18,5;99553;92;0,0123;0,0;5,2;330;6,6;4,49;-2,52;263;0;0;11,3;15,0;14,6;20,4;21,6;21,6;21,4;20,0;-1388,6;11,3;1896
2022-08-05 10:00:00;17,0;99686;91;0,011;0,0;5,3;318;6,9;3,9;-3,44;73;0;0;11,4;15,0;14,6;20,4;21,8;21,6;21,4;20,0;-1376,3;11,4;1776
2022-08-05 11:00:00;16,9;99789;88;0,0107;0,0;4,8;334;6,0;4,33;-2,05;119;0;0;11,5;15,0;14,6;20,3;21,5;21,6;21,3;20,0;-1417,9;11,5;1892
2022-08-05 12:00:00;18,4;99829;82;0,0109;0,0;3,4;330;4,4;2,87;-1,68;352;0;0;11,4;15,0;14,6;20,3;21,5;21,5;21,3;20,0;-1458,5;11,7;1924
2022-08-05 13:00:00;20,3;99844;70;0,0105;0,0;2,9;252;3,9;2,59;-0,74;544;0;0;11,5;15,0;14,6;20,3;22,0;21,5;21,3;20,0;-1517,0;11,9;1899
2022-08-05 14:00:00;21,3;99850;62;0,0098;0,0;3,0;160;4,0;2,86;-0,02;376;0;0;11,6;15,0;14,5;20,3;22,8;21,7;21,2;20,0;-1428,1;12,1;1976
2022-08-05 15:00:00;21,2;99860;59;0,0093;0,0;4,7;216;6,2;4,53;-0,77;154;0;0;11,7;15,0;14,5;20,3;23,0;22,0;21,2;20,0;-1442,0;12,2;1945
2022-08-05 16:00:00;20,8;99909;56;0,0087;0,0;4,8;307;6,2;4,68;-0,62;129;0;0;11,6;15,0;14,5;20,3;22,6;22,1;21,2;20,0;-1511,7;12,4;2020
2022-08-05 17:00:00;20,5;99950;57;0,0086;0,0;3,5;301;4,7;3,36;-0,85;70;0;0;11,6;15,0;14,5;20,3;22,2;22,0;21,2;20,0;-1508,0;12,7;2079
2022-08-05 18:00:00;20,0;100031;55;0,008;0,0;3,6;310;4,7;3,54;-0,68;24;0;0;11,6;15,0;14,5;20,3;21,8;21,9;21,3;19,9;-1460,4;12,9;1926
2022-08-05 19:00:00;18,5;100094;56;0,0074;0,0;2,2;331;3,1;1,93;-0,91;1;0;0;11,6;15,0;14,6;20,3;21,3;21,7;21,2;20,0;-1485,8;13,0;1731
2022-08-05 20:00:00;16,8;100188;59;0,007;0,0;1,8;317;2,9;1,3;-1,24;0;0;0;11,5;15,0;14,5;20,3;20,7;21,5;21,2;20,0;-1475,8;13,2;1556
2022-08-05 21:00:00;16,3;100268;61;0,0071;0,0;2,6;282;4,0;0,56;-2,52;0;0;0;11,5;14,9;14,5;20,3;20,2;21,2;21,2;19,9;-1523,1;13,6;1679
2022-08-05 22:00:00;15,7;100303;63;0,007;0,0;2,9;293;4,5;1,16;-2,64;0;0;0;11,5;14,9;14,5;20,3;19,8;20,9;21,1;19,9;-1436,3;13,7;1686
2022-08-05 23:00:00;15,1;100392;65;0,007;0,0;3,1;286;4,9;0,88;-3,0;0;0;0;11,5;14,9;14,5;20,3;19,4;20,6;21,0;19,9;-1562,7;13,7;1750
2022-08-06 00:00:00;14,2;100430;68;0,0068;0,0;3,3;294;4,5;1,31;-2,92;0;0;0;11,4;14,9;14,5;20,3;19,0;20,4;20,9;19,9;-1687,1;13,8;1768
2022-08-06 01:00:00;13,2;100450;71;0,0067;0,0;3,0;292;4,5;1,16;-2,7;0;0;0;11,4;14,9;14,5;20,3;18,6;20,1;20,8;19,9;-1640,3;14,0;1817
2022-08-06 02:00:00;12,1;100484;74;0,0065;0,0;1,9;266;2,8;-0,13;-1,84;0;0;0;11,4;14,9;14,5;20,3;18,2;19,8;20,7;19,9;-5882,3;14,1;1741
2022-08-06 03:00:00;12,3;100518;75;0,0066;0,0;2,1;288;3,3;0,69;-1,97;0;0;0;11,4;14,9;14,5;20,3;17,9;19,5;20,6;19,9;-7992,2;14,3;1722
2022-08-06 04:00:00;11,4;100540;78;0,0065;0,0;1,8;282;2,8;0,69;-1,25;25;0;0;11,4;14,8;14,5;20,3;17,6;19,2;20,4;19,9;-9990,0;14,5;1710
2022-08-06 05:00:00;12,3;100595;80;0,007;0,0;1,7;273;2,7;0,36;-1,42;134;0;0;11,4;14,8;14,5;20,3;17,3;19,0;20,3;19,9;-9990,0;14,8;1750
2022-08-06 06:00:00;13,6;100608;77;0,0075;0,0;2,1;328;3,6;1,71;-1,12;292;0;0;11,4;14,8;14,5;20,3;17,5;18,8;20,2;19,9;-9990,0;15,2;1731
2022-08-06 07:00:00;15,1;100637;73;0,0078;0,0;2,0;122;4,2;1,99;0,08;442;0;0;11,4;14,8;14,5;20,3;18,0;18,8;20,0;19,9;-9990,0;15,4;1801
2022-08-06 08:00:00;16,6;100628;66;0,0077;0,0;2,7;16;5,4;2,54;0,76;580;0;0;11,4;14,8;14,5;20,3;19,1;18,9;19,9;19,9;-9990,0;15,3;1734
2022-08-06 09:00:00;18,1;100630;56;0,0072;0,0;2,7;24;5,7;2,44;1,12;772;0;0;11,5;14,8;14,5;20,3;20,2;19,2;19,8;19,8;-9990,0;15,0;1721
2022-08-06 10:00:00;18,5;100627;52;0,0068;0,0;2,9;231;5,8;2,69;-0,52;628;0;0;11,6;14,9;14,5;20,3;21,7;19,7;19,7;19,8;-9990,0;14,7;1703
2022-08-06 11:00:00;19,2;100590;48;0,0066;0,0;2,8;102;6,1;2,66;0,66;639;0;0;11,6;14,9;14,5;20,2;22,6;20,4;19,7;19,8;-9990,0;14,5;1734
2022-08-06 12:00:00;20,0;100550;44;0,0064;0,0;3,4;101;7,0;3,29;0,55;566;0;0;11,7;14,9;14,5;20,2;23,2;20,9;19,8;19,8;-9990,0;14,3;1732
2022-08-06 13:00:00;21,0;100498;41;0,0063;0,0;3,4;12;7,7;3,33;0,66;708;0;0;11,7;14,9;14,5;20,2;23,8;21,4;19,9;19,7;-9990,0;14,0;1732
2022-08-06 14:00:00;21,3;100477;39;0,0061;0,0;4,2;228;8,1;4,09;-0,8;558;0;0;11,7;15,0;14,5;20,2;24,3;21,8;20,1;19,7;-9990,0;13,9;1758
2022-08-06 15:00:00;21,4;100445;38;0,0061;0,0;3,7;7;7,4;3,67;0,49;452;0;0;11,8;15,0;14,5;20,2;24,4;22,2;20,2;19,7;-9990,0;13,8;1753
2022-08-06 16:00:00;21,4;100412;38;0,006;0,0;3,8;7;6,9;3,73;0,46;282;0;0;11,7;15,0;14,5;20,2;23,9;22,4;20,4;19,7;-9990,0;13,5;1727
2022-08-06 17:00:00;21,0;100407;38;0,0059;0,0;3,3;12;5,4;3,18;0,67;170;0;0;11,7;15,0;14,5;20,2;23,1;22,4;20,6;19,6;-7978,3;13,0;1721
2022-08-06 18:00:00;20,1;100428;39;0,0058;0,0;2,4;12;4,1;2,31;0,51;65;0;0;11,6;15,0;14,5;20,2;22,3;22,2;20,7;19,6;-7930,8;13,0;1724
2022-08-06 19:00:00;17,2;100442;46;0,0056;0,0;1,2;302;1,7;0,53;-0,8;2;0;0;11,6;14,9;14,5;20,2;21,5;21,9;20,8;19,6;-5888,0;13,0;1806
2022-08-06 20:00:00;13,8;100492;59;0,0058;0,0;1,8;236;2,1;-1,01;-1,52;0;0;0;11,5;14,9;14,5;20,2;20,7;21,5;20,8;19,6;-1721,2;13,1;1746
2022-08-06 21:00:00;12,2;100497;66;0,0058;0,0;1,8;240;2,2;-0,89;-1,47;0;0;0;11,5;14,9;14,5;20,2;20,0;21,1;20,8;19,6;-7897,3;13,2;1909
2022-08-06 22:00:00;11,0;100500;69;0,0056;0,0;1,2;232;1,9;-0,75;-0,99;0;0;0;11,4;14,9;14,5;20,1;19,3;20,7;20,8;19,6;-9990,0;13,2;1842
2022-08-06 23:00:00;9,4;100490;75;0,0054;0,0;0,8;167;1,1;-0,57;0,37;0;0;0;11,4;14,9;14,5;20,1;18,8;20,3;20,7;19,6;-5922,5;13,2;1911
2022-08-07 00:00:00;9,2;100477;75;0,0054;0,0;0,4;208;0,8;0,05;-0,19;0;0;0;11,4;14,8;14,5;20,1;18,2;20,0;20,6;19,6;-7920,5;13,2;2091
2022-08-07 01:00:00;nan;nan;nan;nan;0,0;nan;nan;nan;nan;nan;nan;0;nan;11,3;14,8;14,5;20,1;17,7;19,6;20,5;19,6;-7965,2;nan;nan
2022-08-07 02:00:00;6,9;100430;84;0,0052;0,0;0,4;90;0,7;-0,06;0,19;0;0;0;11,3;14,8;14,5;20,1;17,2;19,2;20,3;19,6;-9990,0;13,2;1871
2022-08-07 03:00:00;6,8;100422;86;0,0053;0,0;0,6;181;0,8;-0,54;-0,08;0;0;0;11,3;14,8;14,5;20,1;16,8;18,8;20,2;19,6;-9990,0;13,2;1891
2022-08-07 04:00:00;6,9;100409;88;0,0054;0,0;0,5;217;0,6;-0,19;0,11;35;0;0;11,3;14,8;14,5;20,1;16,4;18,5;20,0;19,6;-9990,0;13,2;2040
2022-08-07 05:00:00;9,8;100423;84;0,0063;0,0;0,6;133;0,7;-0,38;0,4;145;0;0;11,2;14,7;14,4;20,1;16,2;18,2;19,8;19,6;-9990,0;13,1;2171
2022-08-07 06:00:00;13,7;100419;74;0,0072;0,0;0,8;135;1,2;0,55;0,15;286;0;0;11,2;14,7;14,4;20,1;16,4;17,9;19,7;19,6;-9990,0;13,1;1832
2022-08-07 07:00:00;15,9;100406;63;0,0071;0,0;1,4;330;2,9;1,22;-0,63;430;0;0;11,3;14,7;14,4;20,1;17,2;17,9;19,5;19,6;-9990,0;13,1;1701
2022-08-07 08:00:00;18,3;100368;54;0,007;0,0;1,3;324;2,7;1,01;-0,69;568;0;0;11,3;14,7;14,4;20,1;18,4;18,1;19,4;19,6;-9990,0;13,0;1770
2022-08-07 09:00:00;20,5;100337;47;0,007;0,0;1,5;126;4,3;1,5;0,13;669;0;0;11,4;14,8;14,4;20,1;19,9;18,6;19,3;19,6;-9990,0;13,0;1728
2022-08-07 10:00:00;21,6;100285;41;0,0066;0,0;2,2;181;6,0;2,12;0,06;732;0;0;11,5;14,8;14,4;20,1;21,6;19,2;19,2;19,6;-9990,0;13,1;1766
2022-08-07 11:00:00;22,6;100228;38;0,0065;0,0;2,3;175;6,3;2,26;-0,16;757;0;0;11,6;14,8;14,4;20,1;23,1;20,0;19,3;19,6;-9990,0;13,3;1743
2022-08-07 12:00:00;23,5;100187;35;0,0063;0,0;2,1;130;4,7;1,82;0,28;739;0;0;11,7;14,8;14,4;20,1;24,3;20,8;19,4;19,5;-9990,0;13,3;1788
2022-08-07 13:00:00;24,0;100158;33;0,0061;0,0;2,1;181;5,1;1,9;0,05;680;0;0;11,7;14,9;14,4;20,1;25,2;21,6;19,6;19,5;-9990,0;13,5;1840
2022-08-07 14:00:00;24,6;100120;32;0,0061;0,0;2,3;260;5,6;2,19;-0,39;577;0;0;11,8;14,9;14,4;20,0;25,7;22,4;19,8;19,5;-9990,0;13,7;1780
2022-08-07 15:00:00;24,8;100075;32;0,0064;0,0;2,3;18;5,3;2,12;0,7;438;0;0;11,7;14,9;14,4;20,0;25,7;22,9;20,0;19,4;-9990,0;13,8;1835
2022-08-07 16:00:00;25,0;100040;32;0,0063;0,0;3,0;123;5,4;2,97;0,24;304;0;0;11,7;15,0;14,4;20,0;25,2;23,2;20,3;19,4;-9990,0;13,9;1883
2022-08-07 17:00:00;24,6;100030;33;0,0063;0,0;3,5;346;6,6;3,36;-0,78;167;0;0;11,7;15,0;14,4;20,0;24,4;23,2;20,5;19,4;-9990,0;14,1;1798
2022-08-07 18:00:00;22,8;100060;36;0,0062;0,0;3,0;335;4,9;2,71;-1,1;44;0;0;11,6;14,9;14,4;20,0;23,6;23,0;20,7;19,4;-9990,0;14,5;1729
2022-08-07 19:00:00;19,9;100117;42;0,006;0,0;1,9;300;2,5;0,95;-1,63;2;0;0;11,5;14,9;14,4;20,0;22,8;22,8;20,9;19,4;-7959,1;14,6;1851
2022-08-07 20:00:00;18,5;100165;46;0,0061;0,0;2,0;259;2,9;-0,36;-2,01;0;0;0;11,5;14,9;14,4;20,0;21,9;22,4;21,0;19,4;-7953,0;14,5;1824
2022-08-07 21:00:00;17,5;100192;53;0,0065;0,0;2,2;261;3,3;-0,34;-2,18;0;0;0;11,4;14,9;14,4;20,0;21,2;22,0;21,0;19,4;-5892,5;14,4;1742
2022-08-07 22:00:00;16,4;100215;57;0,0067;0,0;1,9;267;3,2;-0,1;-1,89;0;0;0;11,4;14,9;14,4;20,0;20,7;21,6;21,0;19,4;-1811,0;14,3;1762
2022-08-07 23:00:00;15,9;100210;60;0,0067;0,0;2,2;256;3,1;-0,52;-2,14;0;0;0;11,4;14,8;14,4;20,0;20,2;21,3;21,0;19,4;-3810,1;14,3;1810
2022-08-08 00:00:00;15,2;100228;63;0,0067;0,0;2,6;256;3,6;-0,62;-2,55;0;0;0;11,3;14,8;14,4;20,0;19,7;20,9;20,9;19,4;-3858,6;14,0;1784
2022-08-08 01:00:00;14,1;100230;67;0,0067;0,0;1,8;262;2,7;-0,24;-1,79;0;0;0;11,3;14,8;14,4;20,0;19,3;20,6;20,8;19,5;-7959,1;13,7;1877
2022-08-08 02:00:00;13,5;100233;70;0,0067;0,0;1,9;262;3,1;-0,27;-1,82;0;0;0;11,3;14,8;14,4;20,0;18,9;20,3;20,7;19,5;-9990,0;13,5;1797
2022-08-08 03:00:00;12,4;100260;73;0,0065;0,0;1,2;276;2,2;0,1;-1,14;0;0;0;11,3;14,8;14,4;19,9;18,5;20,0;20,6;19,5;-9990,0;13,2;1845
2022-08-08 04:00:00;12,7;100278;75;0,0068;0,0;1,4;265;2,4;-0,13;-1,42;29;0;0;11,2;14,8;14,4;19,9;18,1;19,7;20,5;19,5;-7971,7;13,0;1801
2022-08-08 05:00:00;14,1;100290;74;0,0074;0,0;1,6;272;2,7;0,19;-1,57;131;0;0;11,2;14,7;14,4;19,9;17,9;19,4;20,4;19,5;-9990,0;13,0;1812